Location: Gorrie
(43.8742°N, 81.1087°W)
Time: 10:12:44
(UTC+00:00)

Cosmos 1428 Rocket - Pass Details

Date: 09 December 2025
Orbit: 947 x 987 km, 82.9° (Epoch: 21 January)

Event Time Altitude Azimuth Distance (km) Brightness Sun altitude
Rises 10:42:58 0° 195° (SSW) 3,639 7.5 -21.5°
Reaches altitude 10° 10:45:29 10° 198° (SSW) 2,703 6.8 -21.1°
Maximum altitude 10:51:38 65° 280° (W) 1,066 4.4 -20.0°
Drops below altitude 10° 10:57:54 10° 3° (N) 2,746 6.7 -18.9°
Sets 11:00:28 0° 6° (N) 3,702 7.5 -18.5°
